CAPE
0 0 0 0 0 0 0 0 0 0 0 0 0 0 0 0 0 0 0 0 0 0 0 0 0 0 0 0 0 0 0 0 0 0 0 0 0 0 0 0 0 0
0 23 18 0 9 3 4 0 0 0 0 0 0 0 0 0 0 0 0 0 0 0 0 0 0 0 0 0 0 0 0 0 0 0 0 0 0 0 0 0 0 0
8 8 20 6 15 5 12 40 1 0 12 1 0 0 0 0 0 0 0 0 0 0 0 0 0 0 0 0 0 0 0 0 0 0 0 0 0 0 0 0 0 0
13 0 0 3 24 5 0 316 44 0 11 20 3 0 2 0 0 0 0 151 0 0 0 0 0 0 0 0 0 0 0 0 0 0 0 0 0 0 0 0 0 0
116 12 44 0 92 34 0 17 160 31 10 2 62 20 21 0 0 6 1 24 0 0 0 0 0 0 0 0 0 0 0 0 0 0 0 0 0 0 0 0 0 0
480 216 164 17 116 150 1 0 81 91 52 4 27 25 20 0 0 1 26 12 1 0 0 0 0 0 0 0 0 0 0 0 0 0 0 0 0 0 0 0 0 0
633 600 506 333 403 328 53 47 67 81 104 8 19 16 38 96 7 0 26 33 6 4 0 0 0 0 0 0 0 0 0 0 0 0 0 0 0 0 0 0 0 0
631 567 477 438 381 397 347 350 248 344 400 361 110 13 38 194 207 24 11 24 10 0 0 0 0 0 0 0 0 0 0 0 0 0 0 0 0 0 0 0 0 0
547 538 574 455 365 37 77 72 298 480 391 421 407 373 73 180 276 236 30 4 10 0 0 0 0 0 0 0 0 0 0 0 0 0 0 0 0 0 0 0 0 0
230 601 154 446 15 163 133 47 44 137 26 111 151 64 50 262 282 306 307 274 243 31 1 1 0 0 0 0 0 0 0 0 0 0 0 0 0 0 0 0 0 0
580 484 521 644 569 531 495 234 111 160 196 191 133 152 191 188 88 54 144 225 292 271 240 235 4 0 125 188 98 76 0 0 0 0 0 0 0 0 0 0 0 0
555 698 895 814 665 569 542 549 451 453 605 529 424 322 201 197 209 129 157 135 68 118 187 78 186 192 140 227 214 204 174 146 78 16 0 0 0 0 0 0 0 0
543 590 724 645 567 569 503 582 708 718 721 664 589 433 330 176 76 113 120 12 8 289 288 108 86 95 61 208 184 137 145 118 41 10 54 0 0 0 0 0 0 0
936 1154 1081 874 746 703 650 686 794 797 864 872 801 735 612 551 494 493 438 385 346 352 333 302 204 157 22 179 272 92 20 18 96 118 112 30 26 75 43 0 0 0
1036 1252 1194 1091 902 776 734 789 1055 1054 982 974 985 955 843 662 525 550 546 495 422 374 418 476 454 358 176 53 23 239 1 0 0 95 127 118 108 85 123 109 0 0
728 996 1074 868 654 590 626 707 831 1054 978 813 750 757 718 699 777 804 759 686 619 542 481 470 475 455 375 314 129 95 216 0 0 0 12 66 106 0 0 0 0 0
0 0 188 698 536 477 510 564 699 822 818 717 721 830 860 876 932 937 948 904 752 607 601 640 653 622 612 615 493 309 203 50 11 0 0 59 94 86 88 87 18 48
0 0 0 0 0 0 1 1 158 429 744 808 893 968 968 900 949 997 974 907 909 916 876 835 829 778 662 578 502 418 340 300 170 48 8 2 43 36 76 74 72 21
0 0 0 0 0 0 0 0 0 0 0 0 4 168 608 880 1003 1041 966 956 939 917 913 854 733 693 685 610 463 389 378 329 208 14 13 12 2 0 48 64 68 61
0 0 0 0 0 0 0 0 0 0 0 0 0 0 9 220 667 996 1047 998 974 951 855 732 648 570 551 538 508 482 449 412 235 225 204 216 106 0 56 0 0 0
0 0 0 0 0 0 0 0 0 0 0 0 0 0 0 12 140 770 938 1002 1005 942 854 743 665 598 534 491 445 405 393 385 380 270 209 63 0 57 0 0 0 0
0 0 0 0 0 0 0 0 0 0 0 0 0 0 0 0 0 202 449 600 764 750 646 618 524 475 408 351 314 275 244 275 346 150 0 54 0 0 0 0 0 0
0 0 0 0 0 0 0 0 0 0 0 0 0 0 0 0 0 0 184 363 410 417 424 408 374 327 286 250 240 255 225 199 148 0 57 9 1 11 0 0 0 0
0 0 0 0 0 0 0 0 0 0 0 0 0 0 0 0 0 0 0 89 220 275 304 314 295 237 198 190 199 205 130 87 60 39 10 4 4 3 4 6 4 2
0 0 0 0 0 0 0 0 0 0 0 0 0 0 0 0 0 0 0 0 42 158 207 220 213 193 127 0 36 99 98 74 49 26 6 2 6 20 23 20 17 16
0 0 0 0 0 0 1 4 0 0 0 0 0 0 0 0 0 0 0 0 0 5 98 123 135 142 0 0 71 56 38 37 62 38 36 27 21 11 3 7 4 0
Wind_Speed
nan nan nan nan nan nan nan nan nan nan nan nan nan nan nan nan nan nan nan nan nan nan nan nan nan nan nan nan nan nan nan nan nan nan nan nan nan nan nan nan nan nan
nan nan nan nan nan nan nan nan nan nan nan nan nan nan nan nan nan nan nan nan nan nan nan nan nan nan nan nan nan nan nan nan nan nan nan nan nan nan nan nan nan nan
nan nan nan nan nan nan nan nan nan nan nan nan nan nan nan nan nan nan nan nan nan nan nan nan nan nan nan nan nan nan nan nan nan nan nan nan nan nan nan nan nan nan
nan nan nan nan nan nan nan 24 nan nan nan nan nan nan nan nan nan nan nan 22 nan nan nan nan nan nan nan nan nan nan nan nan nan nan nan nan nan nan nan nan nan nan
32 nan nan nan nan nan nan nan 22 nan nan nan nan nan nan nan nan nan nan nan nan nan nan nan nan nan nan nan nan nan nan nan nan nan nan nan nan nan nan nan nan nan
27 22 20 nan 24 26 nan nan nan nan nan nan nan nan nan nan nan nan nan nan nan nan nan nan nan nan nan nan nan nan nan nan nan nan nan nan nan nan nan nan nan nan
24 22 20 21 25 28 nan nan nan nan 22 nan nan nan nan nan nan nan nan nan nan nan nan nan nan nan nan nan nan nan nan nan nan nan nan nan nan nan nan nan nan nan
35 34 27 25 27 29 28 25 24 23 23 24 24 nan nan 24 24 nan nan nan nan nan nan nan nan nan nan nan nan nan nan nan nan nan nan nan nan nan nan nan nan nan
31 34 32 31 32 nan nan nan 27 28 27 27 25 25 nan 27 27 26 nan nan nan nan nan nan nan nan nan nan nan nan nan nan nan nan nan nan nan nan nan nan nan nan
33 31 32 30 nan 31 28 nan nan 27 nan 29 28 nan nan 30 29 27 26 26 27 nan nan nan nan nan nan nan nan nan nan nan nan nan nan nan nan nan nan nan nan nan
38 38 36 35 32 31 32 32 31 29 29 30 30 29 31 32 nan nan 31 30 28 25 23 23 nan nan 24 24 nan nan nan nan nan nan nan nan nan nan nan nan nan nan
39 39 38 36 33 30 32 33 30 28 29 30 30 28 27 29 33 34 31 27 nan 27 27 nan 27 28 29 27 23 24 26 25 nan nan nan nan nan nan nan nan nan nan
39 38 37 35 33 31 31 31 30 28 28 27 27 28 29 30 nan 31 29 nan nan 26 25 25 nan nan nan 23 26 28 24 23 nan nan nan nan nan nan nan nan nan nan
41 42 41 39 37 35 35 34 33 31 30 31 32 31 33 33 31 28 25 26 26 26 27 30 31 32 nan 28 27 nan nan nan nan 21 23 nan nan nan nan nan nan nan
43 44 44 43 42 41 39 38 38 37 36 36 35 35 37 36 35 34 31 32 33 32 31 31 30 29 30 nan nan 25 nan nan nan nan 22 25 28 nan 32 34 nan nan
46 46 47 47 46 45 44 43 42 41 40 39 37 37 41 40 40 39 39 38 36 34 34 34 34 35 34 37 35 nan 30 nan nan nan nan nan 32 nan nan nan nan nan
nan nan 50 50 49 49 49 48 47 46 45 43 42 42 44 44 44 43 41 41 39 38 37 38 40 40 36 35 39 38 38 nan nan nan nan nan nan nan nan nan nan nan
nan nan nan nan nan nan nan nan 53 53 50 48 48 48 48 50 48 46 45 44 42 41 41 41 41 40 39 37 40 46 43 42 44 nan nan nan nan nan nan nan nan nan
nan nan nan nan nan nan nan nan nan nan nan nan nan 53 52 55 53 52 49 49 49 48 46 43 40 44 45 42 41 43 44 48 47 nan nan nan nan nan nan nan nan nan
nan nan nan nan nan nan nan nan nan nan nan nan nan nan nan 56 57 55 55 54 53 53 51 46 43 43 43 44 44 45 50 53 51 52 51 52 51 nan nan nan nan nan
nan nan nan nan nan nan nan nan nan nan nan nan nan nan nan nan 56 56 55 56 56 55 53 49 45 46 49 49 50 52 55 54 51 51 52 nan nan nan nan nan nan nan
nan nan nan nan nan nan nan nan nan nan nan nan nan nan nan nan nan 55 57 57 55 56 56 53 50 51 54 55 55 55 55 50 49 50 nan nan nan nan nan nan nan nan
nan nan nan nan nan nan nan nan nan nan nan nan nan nan nan nan nan nan 55 57 56 56 59 57 54 53 57 57 56 56 54 51 51 nan nan nan nan nan nan nan nan nan
nan nan nan nan nan nan nan nan nan nan nan nan nan nan nan nan nan nan nan nan 57 56 57 59 55 54 58 59 59 58 56 nan nan nan nan nan nan nan nan nan nan nan
nan nan nan nan nan nan nan nan nan nan nan nan nan nan nan nan nan nan nan nan nan 56 58 59 57 55 57 nan nan nan nan nan nan nan nan nan nan nan nan nan nan nan
nan nan nan nan nan nan nan nan nan nan nan nan nan nan nan nan nan nan nan nan nan nan nan 57 58 55 nan nan nan nan nan nan nan nan nan nan nan nan nan nan nan nan
Wind_Direction
nan nan nan nan nan nan nan nan nan nan nan nan nan nan nan nan nan nan nan nan nan nan nan nan nan nan nan nan nan nan nan nan nan nan nan nan nan nan nan nan nan nan
nan nan nan nan nan nan nan nan nan nan nan nan nan nan nan nan nan nan nan nan nan nan nan nan nan nan nan nan nan nan nan nan nan nan nan nan nan nan nan nan nan nan
nan nan nan nan nan nan nan nan nan nan nan nan nan nan nan nan nan nan nan nan nan nan nan nan nan nan nan nan nan nan nan nan nan nan nan nan nan nan nan nan nan nan
nan nan nan nan nan nan nan 274 nan nan nan nan nan nan nan nan nan nan nan 288 nan nan nan nan nan nan nan nan nan nan nan nan nan nan nan nan nan nan nan nan nan nan
278 nan nan nan nan nan nan nan 279 nan nan nan nan nan nan nan nan nan nan nan nan nan nan nan nan nan nan nan nan nan nan nan nan nan nan nan nan nan nan nan nan nan
270 271 273 nan 268 270 nan nan nan nan nan nan nan nan nan nan nan nan nan nan nan nan nan nan nan nan nan nan nan nan nan nan nan nan nan nan nan nan nan nan nan nan
262 268 283 280 273 273 nan nan nan nan 286 nan nan nan nan nan nan nan nan nan nan nan nan nan nan nan nan nan nan nan nan nan nan nan nan nan nan nan nan nan nan nan
252 251 262 271 271 268 264 266 270 274 278 279 286 nan nan 291 291 nan nan nan nan nan nan nan nan nan nan nan nan nan nan nan nan nan nan nan nan nan nan nan nan nan
247 253 256 268 271 nan nan nan 263 268 267 269 271 273 nan 281 286 285 nan nan nan nan nan nan nan nan nan nan nan nan nan nan nan nan nan nan nan nan nan nan nan nan
280 270 261 260 nan 270 259 nan nan 271 nan 272 273 nan nan 267 270 268 269 275 279 nan nan nan nan nan nan nan nan nan nan nan nan nan nan nan nan nan nan nan nan nan
271 275 274 268 264 264 264 261 258 254 251 255 260 265 272 273 nan nan 258 261 265 268 270 270 nan nan 283 285 nan nan nan nan nan nan nan nan nan nan nan nan nan nan
273 272 275 279 277 272 267 267 268 267 263 261 263 265 266 271 270 262 258 260 nan 263 262 nan 259 260 264 271 275 279 283 282 nan nan nan nan nan nan nan nan nan nan
276 278 279 279 280 276 268 265 268 271 272 271 271 272 267 268 nan 266 258 nan nan 263 265 266 nan nan nan 274 264 260 262 274 nan nan nan nan nan nan nan nan nan nan
280 280 280 280 279 276 271 268 268 269 271 269 267 268 266 272 279 275 266 269 273 269 264 265 266 267 nan 271 269 nan nan nan nan 280 283 nan nan nan nan nan nan nan
277 277 279 279 280 279 277 275 274 274 273 271 270 270 271 273 276 275 276 276 278 278 275 271 270 274 278 nan nan 278 nan nan nan nan 284 286 285 nan 282 282 nan nan
275 276 277 278 278 280 281 280 279 278 277 276 276 276 275 275 275 275 275 275 275 278 280 277 274 277 285 289 286 nan 278 nan nan nan nan nan 284 nan nan nan nan nan
nan nan 274 278 279 280 281 281 281 282 281 281 280 278 278 278 276 275 276 277 279 278 278 277 275 277 287 286 287 284 277 nan nan nan nan nan nan nan nan nan nan nan
nan nan nan nan nan nan nan nan 277 280 281 281 280 279 280 280 280 280 279 278 276 274 274 275 274 275 270 272 279 286 283 281 282 nan nan nan nan nan nan nan nan nan
nan nan nan nan nan nan nan nan nan nan nan nan nan 279 279 280 283 282 281 280 278 278 277 274 272 262 262 268 271 275 276 276 277 nan nan nan nan nan nan nan nan nan
nan nan nan nan nan nan nan nan nan nan nan nan nan nan nan 275 279 282 281 282 282 280 278 275 269 262 266 270 272 274 276 273 271 272 272 274 275 nan nan nan nan nan
nan nan nan nan nan nan nan nan nan nan nan nan nan nan nan nan 276 280 281 280 279 279 279 274 272 269 271 270 272 275 273 271 271 270 269 nan nan nan nan nan nan nan
nan nan nan nan nan nan nan nan nan nan nan nan nan nan nan nan nan 272 274 277 278 278 276 275 272 269 271 273 275 274 273 273 273 273 nan nan nan nan nan nan nan nan
nan nan nan nan nan nan nan nan nan nan nan nan nan nan nan nan nan nan 271 273 273 274 275 275 273 272 273 273 273 273 273 273 274 nan nan nan nan nan nan nan nan nan
nan nan nan nan nan nan nan nan nan nan nan nan nan nan nan nan nan nan nan nan 272 273 275 276 274 273 274 273 272 272 274 nan nan nan nan nan nan nan nan nan nan nan
nan nan nan nan nan nan nan nan nan nan nan nan nan nan nan nan nan nan nan nan nan 272 272 273 273 271 271 nan nan nan nan nan nan nan nan nan nan nan nan nan nan nan
nan nan nan nan nan nan nan nan nan nan nan nan nan nan nan nan nan nan nan nan nan nan nan 273 274 272 nan nan nan nan nan nan nan nan nan nan nan nan nan nan nan nan